Wind_Speed
16 16 17 17 18 19 19 20 20 20 20 21 21 21 22 22 22 23 23 23 23 24 23 23 23 23 23 23 23 23 23 23 23 23 22 22 22 22
18 19 20 20 20 21 22 23 23 24 24 25 25 25 25 26 26 26 27 27 27 27 27 27 27 27 27 27 27 26 26 26 26 26 26 26 25 25
20 22 22 23 23 24 25 26 27 27 28 29 29 29 29 30 30 30 30 31 31 31 31 31 31 31 31 31 31 31 31 30 30 30 30 29 29 29
23 24 25 26 26 27 28 29 30 31 32 32 33 33 33 34 34 34 34 35 35 35 35 35 35 35 35 35 35 35 35 35 35 34 34 34 33 33
24 25 26 27 28 29 31 32 33 33 34 35 35 37 37 37 37 38 38 39 39 39 39 38 38 39 39 40 40 39 39 39 39 38 38 38 37 37
25 27 28 28 30 31 32 33 35 36 37 37 38 39 40 40 40 40 41 41 42 43 42 42 41 41 42 43 43 43 43 42 42 42 42 41 41 40
27 28 29 31 32 34 35 36 37 38 39 40 41 41 42 42 43 43 43 44 44 45 45 45 45 45 45 46 46 46 46 45 45 45 45 45 44 43
28 30 31 31 33 35 37 38 39 40 41 42 43 44 44 45 46 47 47 47 47 47 49 49 49 48 48 48 48 48 48 48 49 48 48 48 48 47
30 31 32 34 35 36 38 39 41 42 43 44 45 46 47 48 49 49 50 51 50 50 51 50 50 51 50 50 50 50 51 51 51 52 52 51 51 51
33 34 35 37 39 40 41 42 43 45 46 47 49 50 51 52 53 53 54 55 54 54 54 54 53 54 54 53 53 52 53 54 53 53 53 52 53 53
36 38 39 41 42 43 44 46 47 48 49 51 52 53 54 55 56 57 57 57 57 57 58 58 58 57 56 55 55 55 55 54 54 53 54 54 55 55
39 41 42 43 45 46 47 49 50 51 52 53 55 56 57 58 59 59 59 59 59 58 59 60 60 59 58 56 56 56 56 56 56 56 55 55 56 56
42 43 45 46 48 49 50 52 53 54 55 56 56 57 58 59 59 59 60 60 60 60 60 60 60 60 60 59 58 58 59 59 58 58 58 58 57 57
45 46 48 50 51 52 53 54 55 56 56 56 57 57 58 58 59 60 60 60 60 60 60 60 60 61 61 61 60 60 60 59 60 60 59 59 58 58
47 49 51 52 53 54 55 56 56 56 57 57 58 58 58 59 59 59 60 60 59 59 59 60 60 60 60 61 61 60 60 59 59 60 60 60 59 59
49 51 52 53 54 56 57 57 57 57 58 58 58 58 58 58 58 58 58 58 58 58 58 59 58 58 58 58 58 57 57 57 56 57 57 57 58 59
51 52 53 54 55 56 57 57 57 57 56 56 56 56 55 55 56 55 55 55 55 54 54 54 53 53 53 52 52 52 52 52 52 52 53 53 53 54
52 53 54 55 55 56 55 55 55 54 53 53 52 52 51 51 50 50 50 50 49 48 47 47 46 46 45 44 45 45 45 44 44 44 45 46 47 48
52 53 53 53 53 53 53 52 51 50 49 49 48 47 46 46 45 45 44 43 42 41 40 39 39 38 37 36 36 38 38 37 38 39 40 41 42 43
51 52 52 51 51 50 49 48 47 47 47 46 45 44 43 42 42 41 40 38 37 35 34 34 34 34 33 31 30 32 33 33 33 33 34 35 35 36
50 50 49 48 47 46 46 45 45 44 44 43 41 40 40 39 38 36 34 33 32 31 30 30 31 31 31 30 29 28 28 29 29 28 28 29 29 30
46 46 45 45 44 44 43 43 42 41 40 39 38 37 36 35 33 31 30 29 28 28 28 28 28 29 28 27 26 24 24 25 26 26 26 27 27 27
44 43 43 42 42 41 41 40 39 39 38 37 36 34 32 31 29 28 28 27 26 26 25 25 25 25 25 24 24 23 23 23 24 24 25 26 26 25
Wind_Direction
265 269 272 274 277 279 280 281 283 285 286 287 289 290 291 291 290 289 289 289 288 288 288 287 286 285 285 284 283 281 279 278 277 276 275 275 275 275
268 271 272 274 276 279 281 282 283 285 286 286 287 288 288 289 288 288 288 287 287 286 286 285 284 283 282 282 282 281 280 279 278 276 275 274 274 274
270 273 274 276 277 278 280 282 283 284 285 286 286 286 286 286 286 286 286 286 285 284 284 284 283 282 281 281 280 279 278 278 277 277 276 275 274 273
273 274 276 278 279 279 280 282 282 283 283 284 285 286 286 286 286 285 285 284 283 283 282 282 281 280 280 279 279 278 277 277 276 275 275 274 273 272
274 275 277 279 280 281 281 282 283 284 284 284 285 285 286 285 285 284 284 284 283 282 281 280 280 279 278 277 277 276 276 275 275 274 273 272 271 270
277 277 278 281 282 283 284 284 285 285 285 285 285 285 285 285 284 284 283 284 283 281 281 280 279 278 278 277 276 275 275 274 274 273 272 271 270 269
279 281 282 283 284 285 286 286 287 286 286 286 286 285 285 284 285 285 284 283 282 282 281 280 278 277 277 276 275 274 273 273 273 272 271 270 270 269
282 284 285 286 286 287 287 287 288 288 287 287 287 286 284 284 284 284 283 283 283 281 280 280 279 278 276 275 274 273 273 272 272 271 271 269 268 268
284 286 287 288 288 288 288 289 289 288 288 287 287 286 286 285 284 284 283 283 283 282 280 279 278 278 276 275 274 274 273 272 271 271 270 269 268 267
286 287 288 289 289 289 289 289 289 289 289 288 287 287 286 284 284 283 283 282 282 281 280 279 277 277 277 276 276 274 273 271 270 270 270 270 269 268
288 289 290 291 290 290 291 291 291 290 289 288 287 286 285 285 284 284 283 282 281 280 279 278 277 277 277 276 275 274 273 272 271 270 269 269 269 268
288 290 291 292 292 292 292 291 291 290 289 289 288 287 286 285 285 284 284 283 281 280 279 278 277 276 275 275 274 274 273 272 272 271 270 269 269 268
290 291 292 292 293 293 293 293 292 291 290 289 289 288 287 286 285 285 284 283 282 281 279 278 277 276 276 274 273 273 272 272 271 270 269 268 268 268
292 293 293 294 295 294 294 294 294 293 292 291 290 289 288 287 286 285 284 283 282 281 280 279 277 276 276 275 274 273 272 272 271 269 268 268 267 267
294 295 295 295 295 295 295 295 294 293 292 292 291 289 288 287 286 285 284 283 283 282 281 280 279 278 277 277 275 274 273 272 271 270 269 268 268 267
296 297 296 296 296 296 296 295 293 292 292 291 291 290 289 288 287 286 284 284 282 281 281 280 280 279 278 278 277 276 274 273 271 270 269 268 268 267
297 298 298 298 297 297 296 295 294 293 293 292 291 291 290 289 288 287 286 284 283 282 280 280 280 280 279 279 278 276 275 274 272 271 270 269 268 267
299 299 300 300 299 299 298 298 297 296 296 295 294 294 294 293 291 290 288 287 286 284 283 281 280 280 280 281 281 279 277 275 273 272 271 270 269 267
300 301 300 300 300 300 300 299 299 298 298 297 297 296 295 294 293 293 291 290 288 287 286 284 283 283 283 282 282 283 281 277 276 274 273 272 271 268
301 301 301 301 301 301 301 301 300 299 299 298 297 296 295 295 294 294 294 292 290 288 287 286 287 287 286 285 283 282 282 282 280 277 276 275 273 271
302 302 302 302 303 302 302 302 301 301 300 300 299 297 297 297 296 296 295 294 292 291 289 288 288 289 289 288 287 284 282 283 283 282 279 278 276 274
303 303 303 303 303 303 302 303 302 302 301 301 300 300 299 298 297 296 295 295 294 293 292 290 290 290 290 289 288 286 284 284 285 286 286 285 282 279
303 303 303 303 304 304 304 304 303 302 301 301 301 301 300 299 297 296 296 296 296 296 295 293 292 292 292 291 291 289 287 286 287 288 288 289 289 287
Height
5871 5871 5871 5872 5872 5872 5872 5872 5872 5871 5871 5871 5870 5869 5868 5868 5867 5867 5866 5865 5865 5864 5863 5863 5862 5862 5861 5861 5860 5860 5859 5859 5859 5858 5858 5858 5858 5858
5867 5867 5867 5867 5868 5867 5867 5867 5866 5866 5865 5865 5865 5864 5863 5862 5861 5861 5860 5859 5858 5858 5857 5856 5855 5855 5854 5854 5853 5853 5852 5852 5852 5851 5851 5851 5851 5851
5863 5863 5863 5863 5862 5862 5862 5861 5861 5860 5859 5859 5858 5857 5856 5855 5855 5854 5853 5852 5851 5850 5849 5849 5848 5847 5847 5846 5845 5845 5844 5844 5844 5844 5843 5843 5843 5844
5857 5857 5857 5857 5857 5856 5856 5855 5854 5853 5853 5852 5850 5849 5849 5847 5846 5845 5844 5843 5843 5842 5841 5840 5839 5838 5838 5837 5836 5836 5835 5835 5834 5834 5834 5834 5834 5834
5852 5851 5851 5851 5850 5849 5849 5848 5847 5846 5845 5844 5842 5841 5840 5838 5837 5836 5835 5833 5832 5832 5831 5830 5829 5828 5827 5827 5826 5825 5825 5824 5824 5824 5823 5823 5823 5824
5845 5845 5844 5844 5843 5842 5841 5839 5838 5837 5836 5834 5833 5831 5830 5828 5827 5826 5824 5823 5821 5819 5819 5818 5818 5817 5816 5815 5814 5814 5813 5813 5812 5812 5811 5811 5812 5812
5838 5838 5837 5836 5835 5833 5832 5831 5829 5828 5826 5824 5822 5821 5819 5817 5815 5814 5812 5811 5809 5808 5806 5806 5805 5804 5804 5802 5801 5800 5800 5799 5799 5799 5798 5798 5799 5799
5831 5830 5829 5828 5826 5824 5823 5821 5819 5817 5815 5813 5811 5809 5807 5805 5803 5801 5799 5798 5797 5795 5792 5792 5790 5790 5789 5788 5787 5786 5786 5785 5785 5785 5784 5784 5784 5785
5823 5822 5821 5819 5817 5815 5813 5811 5808 5806 5804 5802 5799 5797 5794 5792 5790 5787 5785 5783 5781 5780 5777 5777 5775 5774 5773 5773 5772 5772 5771 5770 5770 5769 5769 5769 5769 5770
5815 5814 5812 5809 5807 5805 5802 5800 5797 5794 5792 5789 5786 5783 5780 5777 5774 5772 5770 5767 5766 5763 5761 5760 5759 5758 5757 5756 5755 5754 5754 5753 5753 5753 5752 5752 5753 5753
5806 5804 5801 5799 5796 5794 5791 5788 5785 5781 5778 5775 5772 5768 5765 5761 5758 5755 5752 5750 5749 5747 5743 5741 5741 5740 5740 5739 5738 5736 5736 5735 5735 5735 5735 5735 5735 5735
5796 5794 5791 5788 5785 5781 5778 5775 5771 5767 5763 5760 5756 5752 5748 5744 5740 5737 5734 5731 5729 5728 5724 5722 5721 5720 5721 5722 5719 5718 5717 5717 5716 5716 5716 5717 5716 5717
5785 5782 5779 5775 5772 5768 5764 5760 5756 5752 5747 5743 5739 5735 5731 5727 5723 5719 5715 5712 5710 5708 5705 5702 5701 5699 5699 5701 5701 5699 5698 5697 5697 5697 5697 5697 5697 5698
5773 5769 5766 5762 5758 5754 5749 5745 5740 5735 5731 5726 5722 5717 5713 5708 5704 5700 5697 5693 5690 5688 5685 5682 5680 5679 5678 5678 5679 5679 5678 5677 5676 5676 5676 5676 5677 5678
5760 5756 5752 5748 5743 5738 5733 5728 5723 5718 5713 5708 5703 5699 5694 5689 5685 5681 5677 5674 5671 5668 5665 5662 5660 5658 5657 5656 5657 5657 5656 5656 5654 5654 5655 5656 5657 5657
5747 5742 5738 5733 5728 5722 5717 5712 5706 5701 5696 5691 5686 5681 5676 5671 5666 5662 5659 5655 5652 5649 5645 5642 5640 5639 5637 5636 5635 5635 5634 5634 5634 5633 5634 5635 5636 5636
5732 5728 5723 5718 5712 5706 5700 5695 5689 5683 5678 5673 5667 5662 5657 5653 5648 5643 5639 5636 5633 5631 5628 5625 5622 5621 5619 5618 5617 5616 5615 5614 5614 5614 5614 5615 5616 5616
5717 5712 5707 5701 5695 5689 5683 5677 5672 5666 5661 5656 5650 5645 5641 5636 5631 5626 5622 5619 5616 5613 5611 5608 5607 5605 5604 5602 5600 5598 5598 5597 5597 5596 5596 5597 5599 5598
5703 5697 5691 5686 5680 5674 5668 5662 5656 5650 5645 5640 5635 5630 5626 5621 5617 5613 5608 5605 5602 5599 5597 5594 5592 5591 5591 5591 5588 5584 5583 5582 5582 5582 5581 5581 5582 5582
5689 5683 5677 5671 5665 5659 5653 5647 5642 5636 5631 5626 5621 5617 5612 5608 5604 5600 5596 5593 5590 5588 5586 5583 5581 5579 5578 5578 5578 5575 5571 5569 5569 5569 5568 5567 5567 5567
5674 5668 5662 5657 5651 5645 5640 5634 5629 5624 5618 5613 5608 5604 5600 5596 5592 5589 5586 5583 5580 5578 5576 5574 5572 5570 5568 5567 5567 5565 5563 5560 5558 5558 5557 5556 5556 5555
5660 5655 5649 5644 5638 5633 5627 5622 5617 5612 5607 5602 5597 5593 5589 5585 5582 5579 5576 5574 5571 5569 5567 5565 5563 5561 5559 5558 5557 5556 5554 5552 5550 5548 5547 5546 5545 5545
5648 5643 5637 5632 5626 5621 5616 5610 5605 5600 5596 5591 5587 5583 5579 5576 5573 5571 5568 5566 5564 5561 5559 5557 5555 5553 5551 5550 5548 5547 5546 5544 5543 5541 5540 5537 5536 5535